Regional Weather Roundup
Issued by NWS Wakefield, VA

Home |  Current Version |  Previous Version |  Text Only |  Print | Product List |  Glossary Off
Versions: 1 2 3 4 5 6 7 8 9 10 11 12 13 14 15 16 17 18 19 20 21 22 23 24 25 26 27 28
514 ASUS41 KAKQ 200511 RWRAKQ REGIONAL WEATHER ROUNDUP NATIONAL WEATHER SERVICE WAKEFIELD VA 100 AM EDT MON MAY 20 2024 Note: "fair" indicates few or no clouds below 12,000 feet with no significant weather and/or obstructions to visibility. * = Denotes station may not report precipitation (e.g., rain,snow,etc.), thunder or fog. VAZ042-051-052>054-056-200600- NORTHERN VIRGINIA CITY SKY/WX TMP DP RH WIND PRES REMARKS WASH NATIONAL MOCLDY 65 62 90 S3 30.02R DULLES CLEAR 58 56 93 CALM 30.02S FORT BELVOIR NOT AVBL QUANTICO CLEAR 62 60 93 W5 30.03R FREDERICKSBRG* CLEAR 59 59 100 CALM 30.01S STAFFORD* CLEAR 59 56 89 CALM 30.02F WARRENTON FOG 55 52 90 CALM 30.02F VSB 1/2 CULPEPER* FOG 58 56 95 CALM 30.04S VSB 1/4 MANASSAS* MOCLDY 57 57 100 CALM 30.02 VSB 1/2 LEESBURG* CLEAR 59 59 100 W3 30.04S WINCHESTER CLEAR 52 52 100 CALM 30.03S FOG FRONT ROYAL* CLEAR 55 55 100 CALM 30.03S LURAY* N/A 55 55 100 CALM 30.04S $$ VAZ048-049-060>072-079>083-200600- CENTRAL AND SOUTH CENTRAL VIRGINIA CITY SKY/WX TMP DP RH WIND PRES REMARKS RICHMOND FOG 62 59 90 SE7 30.02R VSB 1/2 CHESTERFIELD* CLEAR 56 32 40 CALM 30.02S PETERSBURG* CLEAR 56 55 96 SE3 30.03S FOG HANOVER CLEAR 58 58 100 CALM 30.03 FOG TAPPAHANNOCK* CLOUDY 61 61 100 CALM 30.03S FOG QUINTON* CLOUDY 60 60 100 E3 30.02S CHARLOTTSVILLE CLEAR 63 59 87 CALM 30.02F FOG GORDONSVILLE* CLEAR 57 56 97 CALM 30.02F ORANGE* CLEAR 55 55 100 CALM 30.04F FOG LOUISA* FOG 55 55 99 CALM 30.03S VSB 1/2 BUMPASS* MOCLDY 58 58 100 CALM 30.02F VSB 3/4 FARMVILLE* MOCLDY 56 56 100 CALM 30.02S FOG CREWE* PTCLDY 55 53 91 CALM 30.02S FORT PICKETT* FOG 57 57 100 CALM 30.02S VSB 1/4 CHASE CITY* CLEAR 58 58 100 CALM 30.03S CLARKSVILLE* PTCLDY 61 61 100 CALM 30.02S SOUTH HILL* CLEAR 59 59 99 CALM 30.07F LAWRENCEVILLE* N/A 61 60 97 CALM 30.02S EMPORIA* CLOUDY 60 60 98 CALM 30.04S $$ VAZ088>098-200600- SOUTHEAST VIRGINIA CITY SKY/WX TMP DP RH WIND PRES REMARKS NORFOLK CLOUDY 61 55 81 E8 30.01S VIRGINIA BEACH CLOUDY 59 56 89 NE9 30.00S NORFOLK NAVAL CLOUDY 62 56 80 E7 30.02F WEST POINT* CLOUDY 60 59 96 CALM 30.03S SALUDA* CLOUDY 59 57 95 CALM 30.03S NEWPORT NEWS CLOUDY 61 58 90 CALM 30.02F LANGLEY AFB NOT AVBL FORT EUSTIS NOT AVBL WILLIAMSBURG* NOT AVBL HR EXEC AP* CLOUDY 59 57 94 MISG N/A FRANKLIN* CLOUDY 55 54 96 CALM 30.03S US460-WAKEFLD MOCLDY 58 57 97 CALM 30.03R $$ VAZ020-022-025-037-045-200600- WEST CENTRAL AND SOUTHWEST VIRGINIA CITY SKY/WX TMP DP RH WIND PRES REMARKS STAUNTON* PTCLDY 63 60 92 CALM 30.07F WAYNESBORO* CLOUDY 64 60 86 CALM 30.06F HOT SPRINGS VA FOG 60 58 94 S5 30.12S VSB 1/4 LYNCHBURG CLOUDY 65 60 84 CALM 30.04F DANVILLE CLEAR 59 58 96 CALM 30.03S SOUTH BOSTON* PTCLDY 56 55 95 CALM 30.03S MARTINSVILLE CLOUDY 61 58 91 CALM 30.07S ROANOKE CLOUDY 69 60 73 CALM 30.06F BLACKSBURG CLOUDY 63 63 100 SE5 30.11S DUBLIN* MOCLDY 60 59 96 CALM 30.07F MARION* CLEAR 58 58 99 CALM 30.10F HILLSVILLE* PTCLDY 58 57 97 S3 30.09S RICHLANDS* CLEAR 64 57 79 CALM 30.08S WISE* CLEAR 59 55 88 CALM 30.09S ABINGDON* CLEAR 65 57 77 E3 30.05S $$ MDZ021>025-VAZ099-100-200600- SOUTHERN MARYLAND AND THE DELMARVA PENINSULA CITY SKY/WX TMP DP RH WIND PRES REMARKS PATUXENT RIVER PTCLDY 65 57 75 SE6 30.02F BAY BRIDGE APT CLEAR 62 61 96 SE9 30.03R LEONARDTOWN CLEAR 59 57 94 CALM 30.04S DOVER CLEAR 57 54 89 CALM 30.02F GEORGETOWN CLOUDY 54 53 97 E3 30.04S EASTON PTCLDY 58 56 91 SE6 30.03S CAMBRIDGE MOCLDY 59 59 100 SE6 30.03S SALISBURY MOCLDY 54 52 93 CALM 30.03F TANGIER CLOUDY 60 57 89 E7 30.02S OCEAN CITY MOCLDY 57 53 86 E10 30.04S WALLOPS ISLAND MOCLDY 57 54 89 NE13 30.03S ACCOMACK* CLEAR N/A N/A N/A CALM 30.02F $$ NCZ012>017-030>032-200600- NORTH CENTRAL AND EASTERN NORTH CAROLINA CITY SKY/WX TMP DP RH WIND PRES REMARKS ROANOKE RAPIDS CLOUDY 59 59 100 CALM 30.01S RALEIGH CLEAR 61 58 90 CALM 30.01S ELIZABETH CITY CLEAR 59 55 87 N8 30.00F AHOSKIE* CLOUDY 58 58 100 CALM 30.02S EDENTON* MOCLDY 59 59 100 CALM 30.02S CURRITUCK* CLEAR 58 55 87 N9 30.00S KILL DEVIL HLS CLEAR 56 54 94 N6 29.98S MANTEO CLEAR 56 54 91 NE12 29.99S CAPE HATTERAS CLOUDY 58 58 100 NE9 29.96S TARBORO* MOCLDY 61 61 97 E6 30.01R FOG GOLDSBORO NOT AVBL WASHINGTON MOCLDY 59 56 90 CALM 30.01F GREENVILLE CLOUDY 61 61 100 E6 30.00S NEW BERN PTCLDY 60 58 92 NE5 30.00R WILMINGTON CLEAR 61 57 87 NE6 29.98R $$ VAZ048-200600- ELSEWHERE CITY SKY/WX TMP DP RH WIND PRES REMARKS HARRISBURG PA PTCLDY 63 60 90 CALM 29.99S BALTIMORE MOCLDY 62 61 96 SE3 30.02R ANNAPOLIS CLOUDY 64 60 87 SE6 30.02S ANDREWS AFB NOT AVBL PHILADELPHIA PTCLDY 58 55 90 E5 30.06R HENDERSON NC FOG 54 54 99 CALM 30.02S VSB 3/4 GREENSBORO PTCLDY 61 59 93 CALM 30.02S ROCKY MOUNT CLEAR 62 62 100 CALM 30.00S $$ VAZ100-200600- MARINE STATION/POSITION TIME TEMP WIND PRES WAVE SWELL AIR SEA DIR/SP/G HT/PER HT/PER (UTC) (F) (DEG/KT/KT) (MB) (FT/S) (FT/S) CAPE MAY NJ 0424 55 60 50/ 3/ 4 1017.2 LEWES DE 0424 56 60 130/ 3/ 5 1017.4 15NM E FENWICK I 0450 54 54 40/ 10/ 12 1016.5F 3/ 7 2/ 7 OCEAN-CITY-INLET 0424 55 60 70/ 8/ 13 1015.6 44089 WALLOPS IS 0456 57 N/A 3/ 8 WACHAPREAGUE VA 0424 57 66 50/ 12/ 13 1016.1 THOMAS POINT MD 0500 63 130/ 10/ 11 1017.7R GOOSES REEF MD 0448 60 150/ 14/ 17 N/A 1/ 3 COVE POINT MD 0424 63 140/ 10/ 12 1016.8 SOLOMONS ISLAND 0424 62 67 140/ 5/ 6 1016.5 BISHOPS HEAD MD 0424 62 68 90/ 8/ 9 1016.9 PINEY POINT MD 0424 160/ 11/ 12 N/A POTOMAC MD 0448 61 66 90/ 8/ 10 N/A CAMBRIDGE MD 0424 62 67 120/ 9/ 10 1017.1 LEWISETTA VA 0424 62 69 140/ 4/ 5 1016.7 RAPPAHANNOCK LGT 0424 60/ 8/ 8 1017.8 STINGRAY PT 0448 61 67 90/ 12/ 16 N/A 1/ 3 YORKTOWN VA 0424 63 67 60/ 7/ 8 1016.4 JAMESTOWN VA 0448 61 70 90/ 6/ 6 N/A DOMINION TERM VA 0424 62 40/ 4/ 6 1016.5 KIPTOPEKE VA 0424 57 65 80/ 6/ 10 1017.2 CHES BAY BRIDGE 0424 60 80/ 7/ 11 1015.4 CAPE HENRY VA 0424 59 40/ 12/ 14 1016.8 WILLOUBY STN VA 0424 62 70/ 9/ 10 1016.1 S CRANEY ISL VA 0424 62 60/ 5/ 7 1016.3 CAPE HENRY BUOY 0456 61 N/A 3/ 6 1ST LANDING BUOY 0448 57 65 60/ 10/ 14 N/A 1/15 64NM E OF VA BCH 0450 53 10/ 16/ 19 1015.1F 5/ 7 3/ 7 DUCK PIER NC 0424 58 20/ 18/ 19 1015.4 44100 DUCK FRF 0430 57 58 N/A 4/ 6 44056 DUCK FRF 0456 62 N/A 4/ 6 OREGON INLET NC 0424 57 66 10/ 10/ 17 1015.9 HATTERAS NC 0424 59 69 30/ 14/ 19 1015.0 DIAMOND SHLS NC 0450 63 20/ 17/ 21 1014.0F CAPE LOOKOUT NC 0400 63 20/ 18/ 22 1015.1F $$